Location: Pacheco
(37.9835°N, 122.0752°W)
Time: 10:39:12
(UTC+00:00)

Cosmos 1470 Rocket - Pass Details

Date: 13 April 2024
Orbit: 601 x 629 km, 82.5° (Epoch: 23 May)

Event Time Altitude Azimuth Distance (km) Brightness Sun altitude
Rises 12:23:33 0° 353° (N) 2,888 7.2 -14.2°
Reaches altitude 10° 12:25:47 10° 355° (N) 1,984 6.4 -13.8°
Maximum altitude 12:30:11 82° 83° (E) 630 3.6 -13.0°
Drops below altitude 10° 12:34:35 10° 171° (S) 1,986 6.0 -12.2°
Sets 12:36:49 0° 172° (S) 2,891 6.8 -11.8°
